Regional Weather Roundup
Issued by NWS

Home | Current Version | Previous Version | Text Only | Print | Product List | Glossary On
Versions: 1 2 3 4 5 6 7 8 9 10 11 12 13 14 15 16 17 18 19 20 21 22 23 24 25 26 27 28 29 30 31 32 33 34 35 36 37
000
ASUS45 KREV 221010
RWRNV
NEVADA REGIONAL WEATHER ROUNDUP
NATIONAL WEATHER SERVICE RENO NV
300 AM PDT WED OCT 22 2014

NOTE: "FAIR" INDICATES FEW OR NO CLOUDS BELOW 12,000 FEET WITH NO
SIGNIFICANT WEATHER AND/OR OBSTRUCTIONS TO VISIBILITY.

NVZ001-003-004-221100-
WESTERN NEVADA

CITY           SKY/WX    TMP DP  RH WIND       PRES   REMARKS
RENO           PTCLDY    44  30  57 W3        30.12R
CARSON CITY    FAIR      37  23  56 CALM      30.13S
MINDEN         FAIR      28  18  64 SE5       30.14
SLIDE MTN        N/A     34  27  75 W12         N/A
PYRAMID LAKE     N/A     50 N/A N/A SW7         N/A
FALLON         MOCLDY    40  21  46 S3        30.10S
LOVELOCK       MOCLDY    34  16  47 CALM      30.11R
HAWTHORNE      CLEAR     43  28  56 CALM      30.12R
$$

NVZ002-CAZ072-073-221100-
NORTHERN AND CENTRAL SIERRA

CITY           SKY/WX    TMP DP  RH WIND       PRES   REMARKS
S. LAKE TAHOE  CLEAR     31  24  75 S5        30.14R
TRUCKEE        CLEAR     27  25  93 CALM      30.15S
SQUAW VLY 8000 NOT AVBL
SUSANVILLE     CLEAR     36  32  87 CALM      30.11S
BLUE CANYON    MOCLDY    50  10  20 CALM      30.14R
MAMMOTH LAKES  FAIR      30  12  47 N3        30.17R
$$

NVZ030-031-036-221100-
NORTHERN NEVADA

CITY           SKY/WX    TMP DP  RH WIND       PRES   REMARKS
ELKO           MOCLDY    32  18  56 E5        30.14R
WINNEMUCCA     MOCLDY    30  22  72 E5        30.11S
WENDOVER       PTCLDY    41  28  60 CALM      30.13S
$$

NVZ035-037-221100-
CENTRAL NEVADA

CITY           SKY/WX    TMP DP  RH WIND       PRES   REMARKS
ELY            MOCLDY    26  10  50 S8        30.16R
EUREKA           N/A     31  12  45 S7        30.14S
$$

NVZ013-014-221100-
SOUTH CENTRAL NEVADA

CITY           SKY/WX    TMP DP  RH WIND       PRES   REMARKS
TONOPAH        PTCLDY    41   6  23 N12       30.11R
$$

NVZ017-020-022-221100-
SOUTHERN NEVADA

CITY           SKY/WX    TMP DP  RH WIND       PRES   REMARKS
LAS VEGAS      PTCLDY    64  28  25 S9        29.87R
N. LAS VEGAS   CLEAR     63  30  28 W5        29.90R
NELLIS AFB     CLEAR     57  24  28 VRB3      29.89S
HENDERSON      CLEAR     63  25  23 S9        29.93R
MERCURY        CLEAR     52  26  36 E3        29.96S
$$



USA.gov is the U.S. government's official web portal to all federal, state and local government web resources and services.